This demonstration page uses our WeatherBlox Daily Observations layout. Learn more.

Left ArrowRight Arrow

Hourly Observations for April 12, 2021

Temp ( °F °C ) Dew Point ( °F °C ) Humidity (%) Winds ( mph kmh ) Pressure ( in mb ) Visibility ( mi km ) Precip ( " mm )
12:15 am 00:15 Clear 44 6.5 27 -3 51 51 N 18 30 30.02 1017 10 16.0934 0 0
12:35 am 00:35 Clear 43 6.3 27 -2.6 53 53 NNW 15 24 30.05 1017 10 16.0934 0 0
12:55 am 00:55 Clear 43 6 28 -2.5 55 55 N 16 26 30.04 1017 10 16.0934 0 0
1:15 am 01:15 Clear 42 5.6 28 -2.2 58 58 N 16 26 30.05 1018 10 16.0934 0 0
1:35 am 01:35 Clear 42 5.3 28 -2 60 60 N 14 22 30.07 1018 10 16.0934 0 0
1:55 am 01:55 Partly Cloudy 41 5 28 -2 61 61 N 12 19 30.07 1018 10 16.0934 0 0
2:15 am 02:15 Partly Cloudy 41 4.8 29 -1.7 63 63 N 13 20 30.06 1018 10 16.0934 0 0
2:35 am 02:35 Partly Cloudy 40 4.6 30 -1.3 66 66 N 14 22 30.05 1018 10 16.0934 0 0
2:55 am 02:55 Cloudy 40 4.6 30 -1 67 67 NNW 10 17 30.05 1018 10 16.0934 0 0
3:15 am 03:15 Mostly Cloudy 40 4.5 30 -1 68 68 N 13 20 30.05 1018 10 16.0934 0 0
3:35 am 03:35 Cloudy 40 4.3 30 -1 69 69 NNW 14 22 30.05 1018 10 16.0934 0 0
3:55 am 03:55 Cloudy 40 4.2 30 -1.2 68 68 N 14 22 30.07 1018 10 16.0934 0 0
4:15 am 04:15 Cloudy 40 4.2 29 -1.5 67 67 N 12 19 30.08 1018 10 16.0934 0 0
4:35 am 04:35 Cloudy 39 4.1 30 -1.3 68 68 N 13 20 30.08 1018 10 16.0934 0 0
4:55 am 04:55 Mostly Cloudy 39 4 29 -1.5 68 68 N 14 22 30.09 1019 10 16.0934 0 0
5:15 am 05:15 Mostly Cloudy 39 3.8 29 -1.5 69 69 N 10 17 30.1 1019 10 16.0934 0 0
5:35 am 05:35 Cloudy 38 3.6 29 -1.6 69 69 N 9 15 30.1 1019 10 16.0934 0 0
5:55 am 05:55 Cloudy 38 3.3 29 -1.5 71 71 NNW 9 15 30.1 1019 10 16.0934 0 0
6:15 am 06:15 Cloudy 38 3.3 29 -1.4 72 72 NNW 9 15 30.1 1019 10 16.0934 0 0
6:35 am 06:35 Cloudy 37 3 29 -1.7 72 72 NNW 7 11 30.12 1020 10 16.0934 0 0
6:55 am 06:55 Cloudy 38 3.2 27 -2.6 66 66 NNW 10 17 30.12 1020 10 16.0934 0 0
7:15 am 07:15 Cloudy 37 3 26 -3.6 62 62 N 13 20 30.13 1020 10 16.0934 0 0
7:35 am 07:35 Partly Cloudy 37 2.5 25 -4.1 62 62 N 10 17 30.14 1021 10 16.0934 0 0
7:55 am 07:55 Partly Cloudy 37 2.8 25 -4.1 61 61 N 10 17 30.14 1021 10 16.0934 0 0
8:15 am 08:15 Mostly Cloudy 38 3.3 24 -4.5 57 57 N 9 15 30.14 1021 10 16.0934 0 0
8:35 am 08:35 Partly Cloudy 39 3.8 24 -4.5 55 55 N 14 22 30.14 1021 10 16.0934 0 0
8:55 am 08:55 Sunny 40 4.2 24 -4.6 53 53 N 18 30 30.14 1021 10 16.0934 0 0
9:15 am 09:15 Sunny 40 4.7 24 -4.6 51 51 N 16 26 30.14 1021 10 16.0934 0 0
9:35 am 09:35 Sunny 42 5.4 24 -4.7 49 49 NNW 15 24 30.13 1020 10 16.0934 0 0
9:55 am 09:55 Sunny 43 5.9 23 -5.2 45 45 NNW 16 26 30.13 1020 10 16.0934 0 0
10:15 am 10:15 Sunny 43 6.2 23 -5.2 44 44 N 17 28 30.13 1020 10 16.0934 0 0
10:35 am 10:35 Sunny 44 6.8 22 -5.3 42 42 NNW 16 26 30.12 1020 10 16.0934 0 0
10:55 am 10:55 Sunny 45 7.3 21 -6 39 39 NNW 16 26 30.12 1020 10 16.0934 0 0
11:15 am 11:15 Sunny 46 7.8 22 -5.8 38 38 NNW 13 20 30.11 1020 10 16.0934 0 0
11:35 am 11:35 Sunny 47 8.6 22 -5.6 36 36 NW 14 22 30.11 1019 10 16.0934 0 0
11:55 am 11:55 Sunny 48 9.1 22 -5.4 36 36 NNW 14 22 30.1 1019 10 16.0934 0 0
12:15 pm 12:15 Sunny 49 9.3 22 -5.7 34 34 NW 9 15 30.1 1019 10 16.0934 0 0
12:35 pm 12:35 Sunny 51 10.3 22 -5.4 33 33 NNW 10 17 30.08 1019 10 16.0934 0 0
12:55 pm 12:55 Sunny 51 10.5 22 -5.7 32 32 NNW 13 20 30.08 1019 10 16.0934 0 0
1:15 pm 13:15 Sunny 51 10.8 22 -5.5 32 32 WNW 13 20 30.07 1018 10 16.0934 0 0
1:35 pm 13:35 Sunny 52 11.1 22 -5.7 31 31 NNW 12 19 30.06 1018 10 16.0934 0 0
1:55 pm 13:55 Sunny 53 11.5 22 -5.8 30 30 NW 9 15 30.05 1018 10 16.0934 0 0
2:15 pm 14:15 Sunny 54 12.2 22 -5.5 29 29 NW 10 17 30.04 1017 10 16.0934 0 0
2:35 pm 14:35 Sunny 54 12.3 20 -6.6 26 26 NNW 6 9 30.03 1017 10 16.0934 0 0
2:55 pm 14:55 Sunny 55 12.8 21 -6 27 27 NNW 13 20 30.03 1017 10 16.0934 0 0
3:15 pm 15:15 Sunny 56 13.4 22 -5.4 27 27 NW 13 20 30.02 1017 10 16.0934 0 0
3:35 pm 15:35 Sunny 57 13.7 21 -6.3 25 25 NW 12 19 30.01 1016 10 16.0934 0 0
3:55 pm 15:55 Sunny 57 14 21 -6.1 24 24 NW 9 15 30.01 1016 10 16.0934 0 0
4:15 pm 16:15 Sunny 58 14.2 20 -6.8 23 23 WNW 16 26 30 1016 10 16.0934 0 0
4:35 pm 16:35 Sunny 58 14.5 20 -6.5 23 23 NW 10 17 29.98 1015 10 16.0934 0 0
4:55 pm 16:55 Sunny 58 14.5 19 -7.3 22 22 NW 12 19 29.98 1015 10 16.0934 0 0
5:15 pm 17:15 Sunny 58 14.2 18 -7.9 21 21 NW 13 20 30 1016 10 16.0934 0 0
5:35 pm 17:35 Sunny 58 14.7 18 -7.7 21 21 NW 12 19 29.99 1016 10 16.0934 0 0
5:55 pm 17:55 Sunny 58 14.6 19 -7.4 21 21 WNW 13 20 29.99 1016 10 16.0934 0 0
6:15 pm 18:15 Sunny 58 14.5 19 -7.4 21 21 NW 14 22 30 1016 10 16.0934 0 0
6:35 pm 18:35 Partly Cloudy 57 14.1 18 -8 21 21 N 10 17 30.01 1016 10 16.0934 0 0
6:55 pm 18:55 Sunny 57 13.7 17 -8.2 21 21 NNW 13 20 30.02 1017 10 16.0934 0 0
7:15 pm 19:15 Sunny 56 13.1 17 -8.5 22 22 NNW 9 15 30.03 1017 10 16.0934 0 0
7:35 pm 19:35 Sunny 55 12.6 17 -8.5 22 22 N 14 22 30.04 1017 10 16.0934 0 0
7:55 pm 19:55 Sunny 53 11.6 17 -8.4 24 24 N 7 11 30.06 1018 10 16.0934 0 0
8:15 pm 20:15 Clear 48 9 18 -7.9 30 30 NNE 8 13 30.08 1019 10 16.0934 0 0
8:35 pm 20:35 Clear 44 6.9 18 -7.6 35 35 NNE 7 11 30.11 1020 10 16.0934 0 0
8:55 pm 20:55 Clear 41 5.2 18 -8 38 38 NNE 6 9 30.14 1021 10 16.0934 0 0
9:15 pm 21:15 Clear 40 4.6 17 -8.6 38 38 NNE 7 11 30.16 1021 10 16.0934 0 0
9:35 pm 21:35 Clear 38 3.2 17 -8.6 42 42 NNE 8 13 30.18 1022 10 16.0934 0 0
9:55 pm 21:55 Clear 39 3.8 17 -8.1 42 42 NNE 6 9 30.19 1022 10 16.0934 0 0
10:15 pm 22:15 Clear 38 3.2 18 -7.7 45 45 NNE 6 9 30.21 1023 10 16.0934 0 0
10:35 pm 22:35 Clear 37 2.9 19 -7.3 47 47 N 6 9 30.23 1024 10 16.0934 0 0
10:55 pm 22:55 Clear 40 4.3 21 -6.3 46 46 NNW 6 9 30.23 1024 10 16.0934 0 0
11:15 pm 23:15 Clear 39 4.1 20 -6.4 47 47 N 8 13 30.25 1024 10 16.0934 0 0
11:35 pm 23:35 Clear 39 3.9 21 -6.1 48 48 NNW 8 13 30.26 1025 10 16.0934 0 0
11:55 pm 23:55 Clear 38 3.3 21 -6 51 51 N 8 13 30.26 1025 10 16.0934 0 0

Powered by AerisWeather